Skip Page Navigation
NASA JPL Caltech
NASA Logo - Jet Propulsion Laboratory + View the NASA Portal
+ Center for Near-Earth Object Studies
JPL Home Earth Solar System Stars & Galaxies Technology
JPL Solar System Dynamics
BODIES ORBITS EPHEMERIDES TOOLS PHYSICAL DATA DISCOVERY FAQ SITE MAP
IMPORTANT: The SSD Announcement email list is now available. Major changes are coming in the near future, including possible hostname and/or URL changes. To be notified of such changes, subscribe to this email list.

Please visit this page for more details.


JPL Small-Body Database Browser
Search: [ help ]  
305305 (2008 AE36)
Classification: Main-belt Asteroid          SPK-ID: 2305305
Ephemeris | Orbit Diagram | Orbital Elements | Mission Design | Physical Parameters | Discovery Circumstances | Close-Approach Data ]

[ show orbit diagram ]
Orbital Elements at Epoch 2458600.5 (2019-Apr-27.0) TDB
Reference: JPL 11 (heliocentric ecliptic J2000)
 Element Value Uncertainty (1-sigma)   Units 
e .03595677296336358 5.3752e-08  
a 2.964247860924742 4.0369e-08 au
q 2.857663073582335 1.6741e-07 au
i 8.884295442238596 6.2199e-06 deg
node 119.1090096903727 3.5243e-05 deg
peri 148.1749790786715 8.8176e-05 deg
M 294.6402643760624 7.9784e-05 deg
tp 2458938.937116081572
(2020-Mar-30.43711608)
0.00041305 TDB
period 1864.104262758729
5.10
3.808e-05
1.043e-07
d
yr
n .1931222449259507 3.9451e-09 deg/d
Q 3.07083264826715 4.1821e-08 au
  Orbit Determination Parameters
   # obs. used (total)      194  
   data-arc span      6435 days (17.62 yr)  
   first obs. used      2001-10-18  
   last obs. used      2019-06-01  
   planetary ephem.      DE431  
   SB-pert. ephem.      SB431-N16  
   condition code      0  
   norm. resid. RMS      .56665  
   source      ORB  
   producer      Otto Matic  
   solution date      2019-Sep-24 05:54:35  

Additional Information
 Earth MOID = 1.84478 au 
 Jupiter MOID = 2.01254 au 
 T_jup = 3.246 
[ show covariance matrix ]

Ephemeris | Orbit Diagram | Orbital Elements | Mission Design | Physical Parameters | Discovery Circumstances | Close-Approach Data ]

Physical Parameter Table
Parameter Symbol Value Units Sigma Reference Notes
absolute magnitude H 15.9   n/a MPO433967  

305305 (2008 AE36)          Discovered 2008-Jan-10 by Spacewatch at Kitt Peak
Reference: 20111110/Numbers.arcLast Updated: 2011-11-14

[ show close-approach data ]
Ephemeris | Orbit Diagram | Orbital Elements | Mission Design | Physical Parameters | Discovery Circumstances | Close-Approach Data ]
ABOUT SSD CREDITS/AWARDS PRIVACY/COPYRIGHT GLOSSARY LINKS
FirstGov
(server date/time)  
NASA Home Page
Site Manager:   Ryan S. Park
Webmaster  Alan B. Chamberlin